sat.trackr.live / text

‹ back to catalog

AURA

NORAD 28376 · 2004-026A

PAYLOAD ACTIVE UNKNOWN

§ Identity

Operator
Country
US
Launch date
2004-07-15
Launch site
AFWTR
Launch vehicle
Mass (kg)
RCS (m²)
9.44

Purposes: earth_obs

External: N2YO · Heavens-Above · Gunter

§ Orbital elements

Epoch: 2026-09-10T03:52:11.337312Z

Period
98.53 min
Inclination
98.3504°
Eccentricity
0.0001586
Mean motion
14.61435024 rev/d
Perigee alt
687.4 km
Apogee alt
689.7 km
Semi-major
7,066.7 km
B*
1.1693e-4
RAAN
210.3581°
Arg perigee
71.7647°
Mean anomaly
288.3726°
Rev number
17,862

§ Raw data

AURA1 28376U 04026A   26253.16124233  .00000531  00000+0  11693-3 0  99992 28376  98.3504 210.3581 0001586  71.7647 288.3726 14.61435024178629

JSON: /api/v1/satellites/28376 · /tle

For live sub-satellite position, see the globe view (requires WebGL).

§ Visibility from observer

Set your observer location to see the next 7 days of passes ≥ 10°. The values pass through the URL so the page stays shareable.

No JS? Fill the form by hand. The geolocation button needs JavaScript.

§ Radio — SatNOGS DB

ModeDescriptionDownlinkUplink
BPSK S-band telemetry 2.288 GHz
X Band downlink 8.160 GHz

2 transmitters · refreshed weekly from db.satnogs.org